Time,TemperatureF,DewpointF,PressureIn,WindDirection,WindDirectionDegrees,WindSpeedMPH,WindSpeedGustMPH,Humidity,HourlyPrecipIn,Conditions,Clouds,dailyrainin,SoftwareType,DateUTC
2013-01-13 00:04:00,35.8,26.6,30.20,SE,127,0.0,0.0,69,0.00,,,0.00,Wunderground v.1.15,2013-01-13 08:04:00,
2013-01-13 00:15:00,36.2,27.0,30.20,SE,127,0.0,0.0,69,0.00,,,0.00,Wunderground v.1.15,2013-01-13 08:15:00,
2013-01-13 00:24:00,35.3,26.1,30.20,SE,127,0.0,0.0,69,0.00,,,0.00,Wunderground v.1.15,2013-01-13 08:24:00,
2013-01-13 00:34:00,35.3,25.8,30.20,SE,127,0.0,0.0,68,0.00,,,0.00,Wunderground v.1.15,2013-01-13 08:34:00,
2013-01-13 00:45:00,34.7,26.3,30.20,SE,127,0.0,0.0,71,0.00,,,0.00,Wunderground v.1.15,2013-01-13 08:45:00,
2013-01-13 00:50:00,34.0,25.9,30.19,SE,127,0.0,0.0,72,0.00,,,0.00,Wunderground v.1.15,2013-01-13 08:50:00,
2013-01-13 01:10:00,36.2,25.6,30.20,SSE,153,1.0,1.0,65,0.00,,,0.00,Wunderground v.1.15,2013-01-13 09:10:00,
2013-01-13 01:15:00,36.2,25.6,30.20,SSE,153,0.0,1.0,65,0.00,,,0.00,Wunderground v.1.15,2013-01-13 09:15:00,
2013-01-13 01:20:00,35.7,26.2,30.20,SSE,153,0.0,0.0,68,0.00,,,0.00,Wunderground v.1.15,2013-01-13 09:20:00,
2013-01-13 01:35:00,33.7,26.0,30.21,ENE,76,0.0,0.0,73,0.00,,,0.00,Wunderground v.1.15,2013-01-13 09:35:00,
2013-01-13 01:45:00,33.5,25.4,30.21,ESE,115,0.0,0.0,72,0.00,,,0.00,Wunderground v.1.15,2013-01-13 09:45:00,
2013-01-13 01:55:00,34.7,25.2,30.22,South,172,1.0,1.0,68,0.00,,,0.00,Wunderground v.1.15,2013-01-13 09:55:00,
2013-01-13 02:05:00,35.7,24.7,30.22,SE,134,1.0,2.0,64,0.00,,,0.00,Wunderground v.1.15,2013-01-13 10:05:00,
2013-01-13 02:10:00,35.8,24.8,30.22,SSE,147,1.0,1.0,64,0.00,,,0.00,Wunderground v.1.15,2013-01-13 10:10:00,
2013-01-13 02:15:00,35.9,24.5,30.22,South,173,1.0,1.0,63,0.00,,,0.00,Wunderground v.1.15,2013-01-13 10:15:00,
2013-01-13 02:25:00,36.0,24.6,30.22,SE,146,1.0,1.0,63,0.00,,,0.00,Wunderground v.1.15,2013-01-13 10:25:00,
2013-01-13 02:30:00,36.0,24.2,30.22,SSE,147,1.0,1.0,62,0.00,,,0.00,Wunderground v.1.15,2013-01-13 10:30:00,
2013-01-13 02:45:00,36.0,24.2,30.21,SE,136,1.0,1.0,62,0.00,,,0.00,Wunderground v.1.15,2013-01-13 10:45:00,
2013-01-13 03:00:00,35.7,23.9,30.22,SSE,166,0.0,0.0,62,0.00,,,0.00,Wunderground v.1.15,2013-01-13 11:00:00,
2013-01-13 03:10:00,35.4,23.7,30.21,ESE,123,0.0,0.0,62,0.00,,,0.00,Wunderground v.1.15,2013-01-13 11:10:00,
2013-01-13 03:25:00,36.0,23.8,30.21,SE,132,2.0,2.0,61,0.00,,,0.00,Wunderground v.1.15,2013-01-13 11:25:00,
2013-01-13 03:35:00,35.1,24.1,30.21,SE,133,0.0,0.0,64,0.00,,,0.00,Wunderground v.1.15,2013-01-13 11:35:00,
2013-01-13 03:45:00,34.3,24.1,30.21,SE,140,0.0,0.0,66,0.00,,,0.00,Wunderground v.1.15,2013-01-13 11:45:00,
2013-01-13 03:50:00,34.5,23.9,30.21,SSE,167,0.0,0.0,65,0.00,,,0.00,Wunderground v.1.15,2013-01-13 11:50:00,
2013-01-13 04:35:00,30.4,24.7,30.21,West,271,0.0,0.0,79,0.00,,,0.00,Wunderground v.1.15,2013-01-13 12:35:00,
2013-01-13 04:45:00,29.7,25.2,30.21,WNW,298,0.0,0.0,83,0.00,,,0.00,Wunderground v.1.15,2013-01-13 12:45:00,
2013-01-13 05:00:00,33.9,24.8,30.21,SSE,162,1.0,1.0,69,0.00,,,0.00,Wunderground v.1.15,2013-01-13 13:00:00,
2013-01-13 05:10:00,32.7,24.7,30.22,North,355,0.0,0.0,72,0.00,,,0.00,Wunderground v.1.15,2013-01-13 13:10:00,
2013-01-13 05:35:00,31.7,24.4,30.23,NW,307,0.0,0.0,74,0.00,,,0.00,Wunderground v.1.15,2013-01-13 13:35:00,
2013-01-13 05:50:00,30.2,24.2,30.23,NE,41,0.0,0.0,78,0.00,,,0.00,Wunderground v.1.15,2013-01-13 13:50:00,
2013-01-13 06:00:00,29.5,24.1,30.24,ESE,111,0.0,0.0,80,0.00,,,0.00,Wunderground v.1.15,2013-01-13 14:00:00,
2013-01-13 06:10:00,29.6,24.2,30.23,SSE,149,1.0,4.0,80,0.00,,,0.00,Wunderground v.1.15,2013-01-13 14:10:00,
2013-01-13 06:20:00,31.7,24.4,30.23,SSE,157,4.0,4.0,74,0.00,,,0.00,Wunderground v.1.15,2013-01-13 14:20:00,
2013-01-13 06:30:00,33.2,24.1,30.24,SSE,158,1.0,1.0,69,0.00,,,0.00,Wunderground v.1.15,2013-01-13 14:30:00,
2013-01-13 06:35:00,33.0,23.9,30.23,SSE,168,1.0,1.0,69,0.00,,,0.00,Wunderground v.1.15,2013-01-13 14:35:00,
2013-01-13 06:50:00,33.5,23.7,30.24,South,178,1.0,1.0,67,0.00,,,0.00,Wunderground v.1.15,2013-01-13 14:50:00,
2013-01-13 06:55:00,33.5,23.4,30.25,SSE,165,0.0,1.0,66,0.00,,,0.00,Wunderground v.1.15,2013-01-13 14:55:00,
2013-01-13 07:05:00,33.1,23.7,30.25,SSE,148,0.0,0.0,68,0.00,,,0.00,Wunderground v.1.15,2013-01-13 15:05:00,
2013-01-13 07:15:00,31.4,23.4,30.25,SE,137,0.0,0.0,72,0.00,,,0.00,Wunderground v.1.15,2013-01-13 15:15:00,
2013-01-13 07:20:00,30.9,23.3,30.25,SE,137,0.0,0.0,73,0.00,,,0.00,Wunderground v.1.15,2013-01-13 15:20:00,
2013-01-13 07:35:00,29.4,23.4,30.26,SSW,203,0.0,0.0,78,0.00,,,0.00,Wunderground v.1.15,2013-01-13 15:35:00,
2013-01-13 07:45:00,28.5,23.4,30.25,SSW,203,0.0,0.0,81,0.00,,,0.00,Wunderground v.1.15,2013-01-13 15:45:00,
2013-01-13 07:55:00,29.9,23.3,30.25,East,97,0.0,0.0,76,0.00,,,0.00,Wunderground v.1.15,2013-01-13 15:55:00,
2013-01-13 08:05:00,29.6,24.2,30.25,East,96,0.0,0.0,80,0.00,,,0.00,Wunderground v.1.15,2013-01-13 16:05:00,
2013-01-13 08:20:00,31.0,24.6,30.26,East,96,0.0,0.0,77,0.00,,,0.00,Wunderground v.1.15,2013-01-13 16:20:00,
2013-01-13 08:30:00,32.1,24.4,30.27,East,96,0.0,0.0,73,0.00,,,0.00,Wunderground v.1.15,2013-01-13 16:30:00,
2013-01-13 08:40:00,33.3,24.2,30.27,SSE,161,1.0,1.0,69,0.00,,,0.00,Wunderground v.1.15,2013-01-13 16:40:00,
2013-01-13 08:45:00,33.7,23.5,30.27,SSE,163,1.0,1.0,66,0.00,,,0.00,Wunderground v.1.15,2013-01-13 16:45:00,
2013-01-13 08:50:00,34.4,23.8,30.27,SE,144,1.0,1.0,65,0.00,,,0.00,Wunderground v.1.15,2013-01-13 16:50:00,
2013-01-13 09:00:00,35.9,24.1,30.27,SE,134,0.0,0.0,62,0.00,,,0.00,Wunderground v.1.15,2013-01-13 17:00:00,
2013-01-13 09:05:00,36.5,24.3,30.27,East,91,0.0,0.0,61,0.00,,,0.00,Wunderground v.1.15,2013-01-13 17:05:00,
2013-01-13 09:15:00,37.7,23.4,30.27,South,190,0.0,0.0,56,0.00,,,0.00,Wunderground v.1.15,2013-01-13 17:15:00,
2013-01-13 09:20:00,38.2,23.0,30.28,East,98,0.0,1.0,54,0.00,,,0.00,Wunderground v.1.15,2013-01-13 17:20:00,
2013-01-13 09:30:00,38.9,22.3,30.28,SSE,148,1.0,4.0,51,0.00,,,0.00,Wunderground v.1.15,2013-01-13 17:30:00,
2013-01-13 09:40:00,39.2,21.1,30.27,ESE,118,2.0,2.0,48,0.00,,,0.00,Wunderground v.1.15,2013-01-13 17:40:00,
2013-01-13 09:50:00,39.9,20.8,30.27,ESE,113,1.0,1.0,46,0.00,,,0.00,Wunderground v.1.15,2013-01-13 17:50:00,
2013-01-13 10:00:00,40.4,20.2,30.26,SE,124,2.0,2.0,44,0.00,,,0.00,Wunderground v.1.15,2013-01-13 18:00:00,
2013-01-13 10:10:00,40.8,21.1,30.26,South,182,1.0,1.0,45,0.00,,,0.00,Wunderground v.1.15,2013-01-13 18:10:00,
2013-01-13 10:20:00,40.7,21.0,30.26,ESE,104,3.0,3.0,45,0.00,,,0.00,Wunderground v.1.15,2013-01-13 18:20:00,
2013-01-13 10:30:00,41.1,20.8,30.26,SSE,150,2.0,2.0,44,0.00,,,0.00,Wunderground v.1.15,2013-01-13 18:30:00,
2013-01-13 10:45:00,42.2,21.3,30.25,SSE,155,1.0,4.0,43,0.00,,,0.00,Wunderground v.1.15,2013-01-13 18:45:00,
2013-01-13 10:55:00,42.7,21.7,30.25,East,80,1.0,1.0,43,0.00,,,0.00,Wunderground v.1.15,2013-01-13 18:55:00,
2013-01-13 11:00:00,43.1,21.0,30.25,East,91,0.0,0.0,41,0.00,,,0.00,Wunderground v.1.15,2013-01-13 19:00:00,
2013-01-13 11:05:00,43.5,20.2,30.25,ENE,61,1.0,1.0,39,0.00,,,0.00,Wunderground v.1.15,2013-01-13 19:05:00,
2013-01-13 11:15:00,44.3,21.5,30.25,NE,47,0.0,0.0,40,0.00,,,0.00,Wunderground v.1.15,2013-01-13 19:15:00,
2013-01-13 11:30:00,45.1,21.0,30.24,NE,36,1.0,3.0,38,0.00,,,0.00,Wunderground v.1.15,2013-01-13 19:30:00,
2013-01-13 11:35:00,45.2,19.8,30.24,NE,53,1.0,3.0,36,0.00,,,0.00,Wunderground v.1.15,2013-01-13 19:35:00,
2013-01-13 12:05:00,46.2,20.7,30.23,ENE,63,1.0,4.0,36,0.00,,,0.00,Wunderground v.1.15,2013-01-13 20:05:00,
2013-01-13 12:15:00,46.3,20.1,30.22,NE,47,1.0,1.0,35,0.00,,,0.00,Wunderground v.1.15,2013-01-13 20:15:00,
2013-01-13 12:30:00,47.0,20.7,30.21,ESE,102,1.0,2.0,35,0.00,,,0.00,Wunderground v.1.15,2013-01-13 20:30:00,
2013-01-13 12:35:00,47.2,20.2,30.21,North,360,2.0,2.0,34,0.00,,,0.00,Wunderground v.1.15,2013-01-13 20:35:00,
2013-01-13 12:45:00,47.4,19.0,30.21,NNW,346,1.0,2.0,32,0.00,,,0.00,Wunderground v.1.15,2013-01-13 20:45:00,
2013-01-13 12:55:00,47.4,18.2,30.21,NNW,342,2.0,2.0,31,0.00,,,0.00,Wunderground v.1.15,2013-01-13 20:55:00,
2013-01-13 13:00:00,47.0,19.3,30.21,NNE,26,3.0,3.0,33,0.00,,,0.00,Wunderground v.1.15,2013-01-13 21:00:00,
2013-01-13 13:30:00,47.5,17.6,30.20,WNW,284,0.0,1.0,30,0.00,,,0.00,Wunderground v.1.15,2013-01-13 21:30:00,
2013-01-13 13:50:00,47.3,18.9,30.20,NE,44,1.0,1.0,32,0.00,,,0.00,Wunderground v.1.15,2013-01-13 21:50:00,
2013-01-13 13:55:00,47.2,17.3,30.20,NNE,21,2.0,2.0,30,0.00,,,0.00,Wunderground v.1.15,2013-01-13 21:55:00,
2013-01-13 14:10:00,47.9,19.4,30.20,East,89,1.0,1.0,32,0.00,,,0.00,Wunderground v.1.15,2013-01-13 22:10:00,
2013-01-13 14:25:00,48.4,19.1,30.19,East,84,1.0,1.0,31,0.00,,,0.00,Wunderground v.1.15,2013-01-13 22:25:00,
2013-01-13 15:00:00,48.0,19.5,30.19,ENE,60,1.0,1.0,32,0.00,,,0.00,Wunderground v.1.15,2013-01-13 23:00:00,
2013-01-13 15:10:00,48.1,18.8,30.19,ENE,68,1.0,2.0,31,0.00,,,0.00,Wunderground v.1.15,2013-01-13 23:10:00,
2013-01-13 15:25:00,48.0,18.8,30.18,SSW,196,1.0,1.0,31,0.00,,,0.00,Wunderground v.1.15,2013-01-13 23:25:00,
2013-01-13 15:35:00,47.6,17.6,30.18,ENE,74,1.0,1.0,30,0.00,,,0.00,Wunderground v.1.15,2013-01-13 23:35:00,
2013-01-13 15:40:00,47.8,18.6,30.18,ESE,120,0.0,2.0,31,0.00,,,0.00,Wunderground v.1.15,2013-01-13 23:40:00,
2013-01-13 15:45:00,47.7,19.2,30.18,ESE,122,0.0,2.0,32,0.00,,,0.00,Wunderground v.1.15,2013-01-13 23:45:00,
2013-01-13 16:10:00,46.8,19.2,30.18,SE,124,0.0,1.0,33,0.00,,,0.00,Wunderground v.1.15,2013-01-14 00:10:00,
2013-01-13 16:25:00,46.4,18.8,30.18,East,90,0.0,2.0,33,0.00,,,0.00,Wunderground v.1.15,2013-01-14 00:25:00,
2013-01-13 16:40:00,45.6,19.5,30.18,SE,142,1.0,1.0,35,0.00,,,0.00,Wunderground v.1.15,2013-01-14 00:40:00,
2013-01-13 16:45:00,45.4,19.3,30.18,SE,129,0.0,1.0,35,0.00,,,0.00,Wunderground v.1.15,2013-01-14 00:45:00,
2013-01-13 16:50:00,45.0,19.6,30.18,SE,129,0.0,1.0,36,0.00,,,0.00,Wunderground v.1.15,2013-01-14 00:50:00,
2013-01-13 17:05:00,43.9,19.3,30.18,SSE,150,1.0,2.0,37,0.00,,,0.00,Wunderground v.1.15,2013-01-14 01:05:00,
2013-01-13 17:15:00,43.3,20.0,30.18,SE,144,1.0,1.0,39,0.00,,,0.00,Wunderground v.1.15,2013-01-14 01:15:00,
2013-01-13 17:20:00,43.0,20.3,30.19,ESE,120,2.0,2.0,40,0.00,,,0.00,Wunderground v.1.15,2013-01-14 01:20:00,
2013-01-13 17:35:00,42.5,21.5,30.19,ESE,109,0.0,0.0,43,0.00,,,0.00,Wunderground v.1.15,2013-01-14 01:35:00,
2013-01-13 17:40:00,42.3,21.9,30.19,ESE,112,0.0,0.0,44,0.00,,,0.00,Wunderground v.1.15,2013-01-14 01:40:00,
2013-01-13 17:50:00,41.7,22.4,30.19,ESE,112,0.0,0.0,46,0.00,,,0.00,Wunderground v.1.15,2013-01-14 01:50:00,
2013-01-13 18:00:00,41.3,22.1,30.19,ESE,115,1.0,1.0,46,0.00,,,0.00,Wunderground v.1.15,2013-01-14 02:00:00,
2013-01-13 18:35:00,39.9,21.3,30.19,NE,51,0.0,0.0,47,0.00,,,0.00,Wunderground v.1.15,2013-01-14 02:35:00,
2013-01-13 18:45:00,40.1,21.5,30.19,SE,139,0.0,0.0,47,0.00,,,0.00,Wunderground v.1.15,2013-01-14 02:45:00,
2013-01-13 18:55:00,40.6,21.4,30.19,SSE,161,1.0,1.0,46,0.00,,,0.00,Wunderground v.1.15,2013-01-14 02:55:00,
2013-01-13 19:05:00,40.7,21.0,30.19,SE,127,0.0,1.0,45,0.00,,,0.00,Wunderground v.1.15,2013-01-14 03:05:00,
2013-01-13 19:10:00,40.8,20.5,30.19,ESE,118,0.0,0.0,44,0.00,,,0.00,Wunderground v.1.15,2013-01-14 03:10:00,
2013-01-13 19:20:00,40.8,20.0,30.19,SE,138,0.0,0.0,43,0.00,,,0.00,Wunderground v.1.15,2013-01-14 03:20:00,
2013-01-13 19:25:00,40.8,20.0,30.19,SE,125,0.0,0.0,43,0.00,,,0.00,Wunderground v.1.15,2013-01-14 03:25:00,
2013-01-13 19:30:00,40.9,19.0,30.19,ESE,119,0.0,1.0,41,0.00,,,0.00,Wunderground v.1.15,2013-01-14 03:30:00,
2013-01-13 19:45:00,41.4,18.3,30.19,ESE,115,1.0,1.0,39,0.00,,,0.00,Wunderground v.1.15,2013-01-14 03:45:00,
2013-01-13 19:50:00,41.5,18.4,30.19,ESE,122,0.0,7.0,39,0.00,,,0.00,Wunderground v.1.15,2013-01-14 03:50:00,
2013-01-13 20:00:00,41.5,17.1,30.19,ENE,69,2.0,2.0,37,0.00,,,0.00,Wunderground v.1.15,2013-01-14 04:00:00,
2013-01-13 20:10:00,41.3,17.6,30.20,East,88,1.0,1.0,38,0.00,,,0.00,Wunderground v.1.15,2013-01-14 04:10:00,
2013-01-13 20:25:00,41.8,16.8,30.20,North,9,2.0,3.0,36,0.00,,,0.00,Wunderground v.1.15,2013-01-14 04:25:00,
2013-01-13 20:45:00,41.9,14.8,30.21,ENE,60,0.0,0.0,33,0.00,,,0.00,Wunderground v.1.15,2013-01-14 04:45:00,
2013-01-13 20:50:00,42.1,15.0,30.20,ENE,65,1.0,1.0,33,0.00,,,0.00,Wunderground v.1.15,2013-01-14 04:50:00,
2013-01-13 21:25:00,42.3,14.5,30.20,NNE,32,2.0,2.0,32,0.00,,,0.00,Wunderground v.1.15,2013-01-14 05:25:00,
2013-01-13 21:30:00,42.2,15.1,30.20,North,355,3.0,3.0,33,0.00,,,0.00,Wunderground v.1.15,2013-01-14 05:30:00,
2013-01-13 21:35:00,42.0,14.9,30.20,NE,43,2.0,3.0,33,0.00,,,0.00,Wunderground v.1.15,2013-01-14 05:35:00,
2013-01-13 21:45:00,42.1,14.3,30.20,NE,39,2.0,2.0,32,0.00,,,0.00,Wunderground v.1.15,2013-01-14 05:45:00,
2013-01-13 21:50:00,41.9,13.4,30.20,NNE,21,2.0,3.0,31,0.00,,,0.00,Wunderground v.1.15,2013-01-14 05:50:00,
2013-01-13 22:00:00,41.7,14.7,30.20,North,355,2.0,2.0,33,0.00,,,0.00,Wunderground v.1.15,2013-01-14 06:00:00,
2013-01-13 22:05:00,41.7,14.0,30.20,North,360,2.0,3.0,32,0.00,,,0.00,Wunderground v.1.15,2013-01-14 06:05:00,
2013-01-13 22:10:00,41.7,14.7,30.21,North,5,2.0,4.0,33,0.00,,,0.00,Wunderground v.1.15,2013-01-14 06:10:00,
2013-01-13 22:20:00,41.6,13.9,30.20,North,5,3.0,3.0,32,0.00,,,0.00,Wunderground v.1.15,2013-01-14 06:20:00,
2013-01-13 22:30:00,41.5,13.8,30.21,NNE,24,2.0,2.0,32,0.00,,,0.00,Wunderground v.1.15,2013-01-14 06:30:00,
2013-01-13 22:40:00,41.4,13.7,30.21,NNE,22,4.0,4.0,32,0.00,,,0.00,Wunderground v.1.15,2013-01-14 06:40:00,
2013-01-13 22:50:00,41.1,13.4,30.21,NE,40,5.0,5.0,32,0.00,,,0.00,Wunderground v.1.15,2013-01-14 06:50:00,
2013-01-13 22:55:00,41.1,13.4,30.21,NNE,31,4.0,5.0,32,0.00,,,0.00,Wunderground v.1.15,2013-01-14 06:55:00,
2013-01-13 23:00:00,41.0,13.4,30.21,NE,35,4.0,4.0,32,0.00,,,0.00,Wunderground v.1.15,2013-01-14 07:00:00,
2013-01-13 23:10:00,41.0,13.4,30.22,North,355,6.0,6.0,32,0.00,,,0.00,Wunderground v.1.15,2013-01-14 07:10:00,
2013-01-13 23:25:00,40.7,12.4,30.22,North,5,5.0,5.0,31,0.00,,,0.00,Wunderground v.1.15,2013-01-14 07:25:00,
2013-01-13 23:30:00,40.5,12.9,30.22,North,355,4.0,4.0,32,0.00,,,0.00,Wunderground v.1.15,2013-01-14 07:30:00,
2013-01-13 23:40:00,40.6,12.3,30.22,NNE,19,6.0,9.0,31,0.00,,,0.00,Wunderground v.1.15,2013-01-14 07:40:00,
2013-01-13 23:45:00,40.6,12.3,30.22,NE,56,6.0,9.0,31,0.00,,,0.00,Wunderground v.1.15,2013-01-14 07:45:00,
2013-01-13 23:55:00,40.4,12.8,30.22,NE,52,4.0,4.0,32,0.00,,,0.00,Wunderground v.1.15,2013-01-14 07:55:00,